{"data":{"norad_id":63766,"epoch":"2026-05-24T20:49:26.942016Z","epoch_age_seconds":82652,"freshness":"FRESH","line1":"1 63766U 25089R   26144.86767294  .00011712  00000+0  43417-3 0  9991","line2":"2 63766  43.0013 335.3992 0001956 261.6743  98.3887 15.27601870 60607","mean_motion":15.2760187,"eccentricity":0.0001956,"inclination_deg":43.0013,"raan_deg":335.3992,"arg_perigee_deg":261.6743,"mean_anomaly_deg":98.3887,"bstar":0.00043417,"rev_number":6060,"period_min":94.265399138324,"perigee_km":481.6415749819,"apogee_km":484.3256453646,"semimajor_km":6861.1206101732,"source":"CELESTRAK","updated_at":"2026-05-25T13:38:20.106287Z"}}